2023/08/15 00:00:00, 0.0,25.8
2023/08/15 00:10:00, 0.0,25.7
2023/08/15 00:20:00, 0.0,25.5
2023/08/15 00:30:00, 0.0,25.3
2023/08/15 00:40:00, 0.0,25.5
2023/08/15 00:50:00, 0.0,25.2
2023/08/15 01:00:00, 0.0,25.0
2023/08/15 01:10:00, 0.0,25.1
2023/08/15 01:20:00, 0.0,24.9
2023/08/15 01:30:00, 0.0,25.2
2023/08/15 01:40:00, 0.0,24.8
2023/08/15 01:50:00, 0.0,25.0
2023/08/15 02:00:00, 0.0,24.9
2023/08/15 02:10:00, 0.0,24.7
2023/08/15 02:20:00, 0.0,25.2
2023/08/15 02:30:00, 0.0,24.8
2023/08/15 02:40:00, 0.0,25.1
2023/08/15 02:50:00, 0.0,24.5
2023/08/15 03:00:00, 0.0,24.9
2023/08/15 03:10:00, 0.0,24.9
2023/08/15 03:20:00, 0.0,24.7
2023/08/15 03:30:00, 0.0,24.7
2023/08/15 03:40:00, 0.0,25.0
2023/08/15 03:50:00, 0.0,25.2
2023/08/15 04:00:00, 0.0,24.7
2023/08/15 04:10:00, 0.0,25.3
2023/08/15 04:20:00, 0.0,25.1
2023/08/15 04:30:00, 0.1,25.2
2023/08/15 04:40:00, 0.0,25.3
2023/08/15 04:50:00, 0.1,25.3
2023/08/15 05:00:00, 0.0,25.2
2023/08/15 05:10:00, 0.0,25.2
2023/08/15 05:20:00, 0.0,25.3
2023/08/15 05:30:00, 0.0,25.1
2023/08/15 05:40:00, 0.1,24.6
2023/08/15 05:50:00, 0.0,23.9
2023/08/15 06:00:00, 0.0,23.8
2023/08/15 06:10:00, 0.0,24.8
2023/08/15 06:20:00, 0.0,25.1
2023/08/15 06:30:00, 0.0,25.1
2023/08/15 06:40:00, 0.0,25.2
2023/08/15 06:50:00, 0.1,25.4
